{"data":{"norad_id":59129,"intl_designator":"2024-043AH","name":"APEX ARIES 1","alt_names":[],"object_type":"PAYLOAD","status":"ACTIVE","operator":null,"country":"US","launch_date":"2024-03-04","launch_site_code":"AFWTR","launch_vehicle":null,"mission":null,"orbit_class":"UNKNOWN","rcs_meters":null,"size_class":null,"mass_kg":null,"dimensions":null,"purposes":[],"wikipedia_slug":null,"has_3d_model":false,"image_url":null,"decayed_at":null,"tle_current":{"epoch":"2026-09-22T09:10:44.655456Z","epoch_age_seconds":95265,"freshness":"FRESH","line1":"1 59129U 24043AH  26265.38246129  .00019943  00000+0  24629-3 0  9996","line2":"2 59129  97.5582  61.4606 0004637 192.8112 167.3027 15.60180909143059","mean_motion":15.60180909,"eccentricity":0.0004637,"inclination_deg":97.5582,"raan_deg":61.4606,"arg_perigee_deg":192.8112,"mean_anomaly_deg":167.3027,"bstar":0.00024629,"rev_number":14305,"period_min":92.296988874384,"perigee_km":383.99700116878,"apogee_km":390.27111354737,"semimajor_km":6765.2710573581,"source":"CELESTRAK","updated_at":"2026-09-23T09:00:19.179499Z"}}}